Location: ??????
(56.0120°N, 39.1740°E)
Time: 11:45:20
(UTC+00:00)

Helios 1A - Pass Details

Date: 14 April 2026
Orbit: 541 x 559 km, 98.2° (Epoch: 10 May)

Event Time Altitude Azimuth Distance (km) Brightness Sun altitude
Rises 19:39:06 0° 18° (NNE) 2,757 7.1 -20.9°
Reaches altitude 10° 19:41:17 10° 22° (NNE) 1,854 6.0 -21.0°
Enters shadow 19:45:13 59° 99° (E) 646 2.9 -21.2°
